Back to catalog

NIMBUS 2 DEB

AliveLEO
NORAD 40641·DEBRIS·🇺🇸 United States

Launched May 15, 1966 from Vandenberg Space Force Base

Loading…

Next Passes (next 24 hours)

TLE

FreshSource: Space-Track

Epoch: Sep 12, 2026, 23:03 UTC

1 40641U 66040BE  26255.96073120  .00001143  00000-0  19907-2 0  9996
2 40641 100.4042 149.2555 0051552 340.6419  19.2752 13.45609408554712

Track NIMBUS 2 DEB in real time with AllMySat

Download on the App Store